This demonstration page uses our WeatherBlox Daily Observations layout. Learn more.

Hourly Observations for June 1, 2020

Temp ( °F °C ) Dew Point ( °F °C ) Humidity (%) Winds ( mph kmh ) Pressure ( in mb ) Visibility ( mi km ) Precip ( " mm )
12:15 am 00:15 Clear 74 23.1 57 14 57 57 S 18 30 29.87 1012 10 16.0934 0 0
12:35 am 00:35 Clear 73 22.9 57 14 57 57 S 17 28 29.87 1012 10 16.0934 0 0
12:55 am 00:55 Clear 73 22.8 57 13.7 57 57 S 18 30 29.86 1011 10 16.0934 0 0
1:15 am 01:15 Clear 74 23.5 55 13 52 52 S 25 41 29.85 1011 10 16.0934 0 0
1:35 am 01:35 Clear 74 23.5 55 12.7 51 51 SSW 23 37 29.85 1011 10 16.0934 0 0
1:55 am 01:55 Clear 74 23.5 55 12.5 50 50 SSW 22 35 29.86 1011 10 16.0934 0 0
2:15 am 02:15 Clear 74 23.5 55 12.5 50 50 SSW 24 39 29.86 1011 10 16.0934 0 0
2:35 am 02:35 Clear 74 23.2 54 12.3 50 50 SSW 20 31 29.86 1011 10 16.0934 0 0
2:55 am 02:55 Clear 73 23 54 12.3 51 51 SSW 23 37 29.86 1011 10 16.0934 0 0
3:15 am 03:15 Clear 73 22.5 54 12.3 53 53 SSW 21 33 29.86 1011 10 16.0934 0 0
3:35 am 03:35 Clear 72 22 54 12.3 54 54 SSW 20 31 29.86 1011 10 16.0934 0 0
3:55 am 03:55 Clear 71 21.6 54 12.2 55 55 SSW 21 33 29.87 1012 10 16.0934 0 0
4:15 am 04:15 Clear 71 21.5 54 12 55 55 SSW 16 26 29.87 1012 10 16.0934 0 0
4:35 am 04:35 Clear 71 21.5 53 11.7 54 54 SSW 17 28 29.87 1011 10 16.0934 0 0
4:55 am 04:55 Clear 70 21.3 53 11.5 54 54 SSW 18 30 29.87 1011 10 16.0934 0 0
5:15 am 05:15 Clear 71 21.4 52 11.3 53 53 SSW 17 28 29.87 1011 10 16.0934 0 0
5:35 am 05:35 Clear 70 21 52 11.1 53 53 SSW 20 31 29.87 1011 10 16.0934 0 0
5:55 am 05:55 Clear 69 20.7 52 11.1 54 54 SSW 20 31 29.87 1012 10 16.0934 0 0
6:15 am 06:15 Sunny 69 20.5 52 11.2 55 55 SSW 18 30 29.87 1012 10 16.0934 0 0
6:35 am 06:35 Sunny 69 20.4 52 11.2 56 56 SSW 18 30 29.87 1012 10 16.0934 0 0
6:55 am 06:55 Sunny 69 20.5 52 11.3 56 56 SSW 18 30 29.87 1012 10 16.0934 0 0
7:15 am 07:15 Sunny 68 20.2 52 11.3 57 57 SSW 18 30 29.88 1012 10 16.0934 0 0
7:35 am 07:35 Sunny 68 20.1 53 11.5 58 58 SSW 18 30 29.89 1012 10 16.0934 0 0
7:55 am 07:55 Sunny 69 20.6 53 11.7 57 57 SSW 16 26 29.88 1012 10 16.0934 0 0
8:15 am 08:15 Sunny 70 21 54 12 57 57 SSW 20 31 29.88 1012 10 16.0934 0 0
8:35 am 08:35 Sunny 71 21.8 54 12.3 55 55 SSW 15 24 29.87 1012 10 16.0934 0 0
8:55 am 08:55 Sunny 71 21.5 54 12.2 56 56 SSW 18 30 29.87 1012 10 16.0934 0 0
9:15 am 09:15 Sunny 73 22.8 54 12.3 52 52 SSW 17 28 29.86 1011 10 16.0934 0 0
9:35 am 09:35 Sunny 75 23.7 55 12.5 50 50 SSW 20 31 29.86 1011 10 16.0934 0 0
9:55 am 09:55 Sunny 76 24.3 55 12.6 48 48 SSW 17 28 29.86 1011 10 16.0934 0 0
10:15 am 10:15 Sunny 77 25.2 55 12.5 45 45 SW 15 24 29.85 1011 10 16.0934 0 0
10:35 am 10:35 Sunny 80 26.4 56 13.1 44 44 SSW 17 28 29.84 1010 10 16.0934 0 0
10:55 am 10:55 Sunny 81 27 55 12.6 41 41 SSW 17 28 29.83 1010 10 16.0934 0 0
11:15 am 11:15 Sunny 82 27.7 55 12.8 40 40 SW 14 22 29.83 1010 10 16.0934 0 0
11:35 am 11:35 Sunny 83 28.4 55 12.9 38 38 SSW 20 31 29.82 1010 10 16.0934 0 0
11:55 am 11:55 Sunny 84 29 55 12.7 37 37 SSW 16 26 29.81 1009 10 16.0934 0 0
12:15 pm 12:15 Sunny 85 29.7 56 13.1 36 36 SW 16 26 29.79 1009 10 16.0934 0 0
12:35 pm 12:35 Sunny 88 30.9 56 13.6 35 35 SW 13 20 29.78 1008 10 16.0934 0 0
12:55 pm 12:55 Sunny 88 31.3 56 13.3 33 33 SSW 15 24 29.77 1008 10 16.0934 0 0
1:15 pm 13:15 Sunny 89 31.7 56 13.4 33 33 S 17 28 29.76 1008 10 16.0934 0 0
1:35 pm 13:35 Sunny 90 32.2 56 13.4 32 32 SSW 16 26 29.75 1007 10 16.0934 0 0
1:55 pm 13:55 Sunny 90 32.4 57 13.8 32 32 S 17 28 29.75 1007 10 16.0934 0 0
2:15 pm 14:15 Sunny 91 32.8 57 13.7 31 31 S 17 28 29.74 1007 10 16.0934 0 0
2:35 pm 14:35 Sunny 91 33 57 13.8 31 31 S 17 28 29.74 1007 10 16.0934 0 0
2:55 pm 14:55 Sunny 92 33.2 57 13.7 31 31 S 16 26 29.73 1007 10 16.0934 0 0
3:15 pm 15:15 Sunny 92 33.6 57 13.9 30 30 SSW 20 31 29.73 1007 10 16.0934 0 0
3:35 pm 15:35 Sunny 93 33.8 56 13.6 29 29 S 17 28 29.72 1006 10 16.0934 0 0
3:55 pm 15:55 Sunny 93 34.1 57 13.7 29 29 S 20 31 29.71 1006 10 16.0934 0 0
4:15 pm 16:15 Sunny 94 34.4 56 13.5 28 28 S 17 28 29.7 1006 10 16.0934 0 0
4:35 pm 16:35 Sunny 94 34.7 56 13.3 27 27 S 20 31 29.7 1006 10 16.0934 0 0
4:55 pm 16:55 Sunny 95 35 55 12.5 26 26 S 17 28 29.69 1005 10 16.0934 0 0
5:15 pm 17:15 Sunny 95 35 54 12.2 25 25 S 22 35 29.69 1005 10 16.0934 0 0
5:35 pm 17:35 Sunny 95 35 54 12.3 25 25 S 20 31 29.69 1005 10 16.0934 0 0
5:55 pm 17:55 Sunny 95 34.8 55 12.7 26 26 S 21 33 29.68 1005 10 16.0934 0 0
6:15 pm 18:15 Sunny 94 34.3 55 12.7 27 27 S 18 30 29.69 1005 10 16.0934 0 0
6:35 pm 18:35 Sunny 93 33.8 56 13.2 29 29 S 18 30 29.69 1005 10 16.0934 0 0
6:55 pm 18:55 Sunny 92 33.3 55 12.7 29 29 S 22 35 29.69 1006 10 16.0934 0 0
7:15 pm 19:15 Sunny 91 32.5 54 12.2 29 29 S 20 31 29.7 1006 10 16.0934 0 0
7:35 pm 19:35 Sunny 89 31.6 55 12.5 31 31 S 20 31 29.71 1006 10 16.0934 0 0
7:55 pm 19:55 Sunny 88 31.2 55 12.8 32 32 S 22 35 29.71 1006 10 16.0934 0 0
8:15 pm 20:15 Sunny 86 29.8 59 15.1 41 41 S 17 28 29.73 1007 10 16.0934 0 0
8:35 pm 20:35 Sunny 84 29 60 15.5 44 44 S 17 28 29.75 1007 10 16.0934 0 0
8:55 pm 20:55 Sunny 83 28.1 60 15.3 46 46 S 17 28 29.75 1008 10 16.0934 0 0
9:15 pm 21:15 Clear 81 27.4 58 14.7 46 46 S 14 22 29.76 1008 10 16.0934 0 0
9:35 pm 21:35 Clear 81 27 56 13.6 44 44 S 16 26 29.77 1008 10 16.0934 0 0
9:55 pm 21:55 Clear 79 26.2 56 13.6 46 46 S 16 26 29.79 1009 10 16.0934 0 0
10:15 pm 22:15 Clear 78 25.8 56 13.2 46 46 S 17 28 29.8 1009 10 16.0934 0 0
10:35 pm 22:35 Clear 78 25.3 56 13.1 47 47 S 14 22 29.81 1010 10 16.0934 0 0
10:55 pm 22:55 Clear 77 25 56 13.3 48 48 S 15 24 29.82 1010 10 16.0934 0 0
11:15 pm 23:15 Clear 76 24.5 56 13.6 51 51 S 15 24 29.83 1010 10 16.0934 0 0
11:35 pm 23:35 Clear 75 24 57 14.1 54 54 S 13 20 29.83 1010 10 16.0934 0 0
11:55 pm 23:55 Clear 74 23.5 58 14.6 57 57 S 13 20 29.84 1010 10 16.0934 0 0

Powered by AerisWeather